GW1062 Weather Reports


Display with metric or nautical units.
time (UTC)temp
F
wind
direction
speed
MPH
gust
MPH
rain 1hr
in
rain 24hr
in
rain mn
in
humidity
%
barometer
mb
20260506040034 45 6 1.0 6.0 0.00 0.00 0.00 49 974.1
20260506034529 45 6 3.0 6.0 0.00 0.00 0.00 48 973.9
20260506033026 46 6 2.0 6.0 0.00 0.00 0.00 48 973.7
20260506031529 46 8 1.0 4.0 0.00 0.00 0.00 47 973.8
20260506030023 47 360 1.0 5.0 0.00 0.00 0.00 46 973.7
20260506024523 48 360 0.0 3.0 0.00 0.00 0.00 46 973.6
20260506023035 48 7 1.0 5.0 0.00 0.00 0.00 44 973.4
20260506021533 49 360 0.0 4.0 0.00 0.00 0.00 43 973.2
20260506020025 49 360 2.0 6.0 0.00 0.00 0.00 42 973.1
20260506014519 50 360 3.0 11.0 0.00 0.00 0.00 41 972.9
20260506013019 51 360 3.0 10.0 0.00 0.00 0.00 41 972.6
20260506011515 51 360 2.0 9.0 0.00 0.00 0.00 41 972.4
20260506010015 52 360 4.0 9.0 0.00 0.00 0.00 40 972.1
20260506004514 52 360 3.0 12.0 0.00 0.00 0.00 40 972.0
20260506003014 53 360 3.0 9.0 0.00 0.00 0.00 40 971.8
20260506001513 53 360 3.0 15.0 0.00 0.00 0.00 40 971.7
20260506000012 53 360 6.0 15.0 0.00 0.00 0.00 40 971.7
20260505234514 54 360 5.0 12.0 0.00 0.00 0.00 37 971.5
20260505233011 54 360 3.0 12.0 0.00 0.00 0.00 38 971.2
20260505231522 54 360 6.0 12.0 0.00 0.00 0.00 37 971.3
20260505230020 55 360 7.0 17.0 0.00 0.00 0.00 36 971.3
20260505224513 56 360 5.0 18.0 0.00 0.00 0.00 35 971.1
20260505223009 56 360 11.0 16.0 0.00 0.00 0.00 33 971.0
20260505221508 56 360 10.0 18.0 0.00 0.00 0.00 33 971.0
20260505220006 56 360 11.0 23.0 0.00 0.00 0.00 33 971.1
20260505214506 56 360 9.0 23.0 0.00 0.00 0.00 33 971.3
20260505213014 57 5 16.0 23.0 0.00 0.00 0.00 30 971.5
20260505211509 56 360 10.0 20.0 0.00 0.00 0.00 35 971.3
20260505210004 57 360 13.0 25.0 0.00 0.00 0.00 30 971.5
20260505204603 57 360 11.0 22.0 0.00 0.00 0.00 33 971.5
20260505203002 57 5 13.0 24.0 0.00 0.00 0.00 33 971.5
20260505201500 58 4 13.0 20.0 0.00 0.00 0.00 33 971.5
20260505200100 58 6 13.0 25.0 0.00 0.00 0.00 33 971.5
20260505194559 58 5 10.0 25.0 0.00 0.00 0.00 32 971.7
20260505193058 58 5 12.0 21.0 0.00 0.00 0.00 31 971.8
20260505191611 58 6 11.0 25.0 0.00 0.00 0.00 31 971.8
20260505190059 57 5 11.0 21.0 0.00 0.00 0.00 32 971.9
20260505184555 58 5 16.0 24.0 0.00 0.00 0.00 31 971.9
20260505183056 57 6 10.0 19.0 0.00 0.00 0.00 38 971.9
20260505181553 57 5 14.0 24.0 0.00 0.00 0.00 33 972.1
20260505180057 55 5 8.0 18.0 0.00 0.00 0.00 37 972.3
20260505174551 56 4 11.0 21.0 0.00 0.00 0.00 36 972.4
20260505173056 56 5 8.0 21.0 0.00 0.00 0.00 37 972.6
20260505171550 56 6 7.0 17.0 0.00 0.00 0.00 38 972.3
20260505170105 55 6 8.0 18.0 0.00 0.00 0.00 37 972.5
20260505164547 54 6 10.0 17.0 0.00 0.00 0.00 36 972.4
20260505163045 54 4 10.0 18.0 0.00 0.00 0.00 36 972.4
20260505161545 54 6 13.0 20.0 0.00 0.00 0.00 38 972.6
20260505153041 53 360 7.0 14.0 0.00 0.00 0.00 41 972.7
20260505151554 53 6 6.0 15.0 0.00 0.00 0.00 43 972.5
20260505124530 46 360 1.0 4.0 0.00 0.00 0.00 58 972.2
20260505123029 44 4 0.0 3.0 0.00 0.00 0.00 64 972.3
20260505121528 42 4 1.0 3.0 0.00 0.00 0.00 64 972.4
20260505120026 42 4 2.0 3.0 0.00 0.00 0.00 64 972.3
20260505114522 42 4 0.0 2.0 0.00 0.00 0.00 64 972.0
20260505113022 43 4 0.0 4.0 0.00 0.00 0.00 62 971.7
20260505111518 43 4 1.0 4.0 0.00 0.00 0.00 60 971.4
20260505101517 43 6 0.0 2.0 0.00 0.00 0.00 61 970.6
20260505100011 43 6 0.0 2.0 0.00 0.00 0.00 62 970.6
20260505094509 42 6 0.0 0.0 0.00 0.00 0.00 63 970.2
20260505093011 43 6 0.0 0.0 0.00 0.00 0.00 60 970.3
20260505091506 43 6 0.0 0.0 0.00 0.00 0.00 59 970.0
20260505090001 45 6 0.0 2.0 0.00 0.00 0.00 55 969.7
20260505084601 45 6 0.0 3.0 0.00 0.00 0.00 54 969.4
20260505083105 45 6 0.0 4.0 0.00 0.00 0.00 55 968.9
20260505081559 46 6 1.0 4.0 0.00 0.00 0.00 54 968.9
20260505080056 46 6 0.0 5.0 0.00 0.00 0.00 53 968.9
20260505074554 46 5 2.0 5.0 0.00 0.00 0.00 52 969.4
20260505073053 47 360 1.0 3.0 0.00 0.00 0.00 52 969.3
20260505071548 47 9 0.0 3.0 0.00 0.00 0.00 51 969.8
20260505070046 48 360 1.0 5.0 0.00 0.00 0.00 50 970.1
20260505064543 48 360 0.0 5.0 0.00 0.00 0.00 51 969.3
20260505063042 49 360 1.0 7.0 0.00 0.00 0.00 50 969.3
20260505061545 49 360 2.0 5.0 0.00 0.00 0.00 50 969.2
20260505060039 50 360 1.0 7.0 0.00 0.00 0.00 49 969.3
20260505054539 50 360 4.0 12.0 0.00 0.00 0.00 46 969.1
20260505053040 51 360 4.0 13.0 0.00 0.00 0.00 47 968.8
20260505051531 51 360 6.0 12.0 0.00 0.00 0.00 45 968.5
20260505041622 52 360 10.0 24.0 0.00 0.00 0.00 46 968.0